Orbital Elements at Epoch 2459200.5 (2020-Dec-17.0) TDB
Reference: JPL 16 (heliocentric ecliptic J2000)
Element | Value | Uncertainty (1-sigma) | Units |
e | .1722621823196696 | 3.2735e-08 | |
a | 2.198833090596747 | 8.8943e-09 | au |
q | 1.820057303853848 | 7.4405e-08 | au |
i | 1.844504313194066 | 5.2362e-06 | deg |
node | 189.1721175160149 | 0.00010736 | deg |
peri | 59.48295199227631 | 0.00010902 | deg |
M | 39.47340598857573 | 1.6036e-05 | deg |
tp | 2459069.916313896301 (2020-Aug-08.41631390) | 5.3136e-05 | TDB |
period | 1190.931611296403 3.26 | 7.226e-06 1.978e-08 | d yr |
n | .3022843600633941 | 1.8341e-09 | deg/d |
Q | 2.577608877339647 | 1.0426e-08 | au |
|
| | Orbit Determination Parameters
Additional Information
|